Location: Asis
(14.1331°N, 120.9056°E)
Time: 16:59:27
(UTC+00:00)

ARIANE 6 FM1 Upper Stage - Pass Details

Date: 15 January 2026
Orbit: 522 x 609 km, 62.0° (Epoch: 13 February)

Event Time Altitude Azimuth Distance (km) Brightness Sun altitude
Rises 11:01:19 0° 190° (S) 2,777 6.6 -17.7°
Reaches altitude 10° 11:03:42 10° 181° (S) 1,864 5.5 -18.3°
Enters shadow 11:07:25 35° 119° (ESE) 901 3.3 -19.2°
